Regional Weather Roundup
Issued by NWS Newport/Morehead, NC

Current Version | Previous Version | Graphics & Text | Print | Product List | Glossary Off
Versions: 1 2 3 4 5 6 7 8 9 10 11 12 13 14 15 16 17 18 19 20 21 22 23 24 25 26 27 28 29 30 31 32 33 34 35 36 37 38 39 40 41 42 43 44 45 46 47 48 49 50

000
ASUS42 KMHX 230122
RWRMHX
WEATHER ROUNDUP FOR EASTERN NORTH CAROLINA
NATIONAL WEATHER SERVICE NEWPORT/MOREHEAD CITY NC
900 PM EDT TUE APR 22 2014

NOTE: "FAIR" INDICATES FEW OR NO CLOUDS BELOW 12,000 FEET
WITH NO SIGNIFICANT WEATHER AND/OR OBSTRUCTIONS TO VISIBILITY

NCZ015>017-031-032-045>047-102-103-230200-
NORTH COAST

CITY           SKY/WX    TMP DP  RH WIND       PRES   REMARKS
EDENTON        CLOUDY    73  54  51 NW6       29.65R
ELIZABETH CITY CLOUDY    70  54  56 SW7       29.63R
KITTY HAWK     MOCLDY    66  51  58 SW6       29.63R
MANTEO         CLOUDY    64  51  64 S7        29.64S

$$

NCZ045>047-081-094-103-104-230200-
CENTRAL COAST

CITY           SKY/WX    TMP DP  RH WIND       PRES   REMARKS
FRISCO         PTCLDY    60  32  34 SW12      29.68R
SWANQUARTER      N/A     64 N/A N/A SW13G20   29.62S

$$

NCZ095-097-098-100-101-230200-
SOUTHERN COAST

CITY           SKY/WX    TMP DP  RH WIND       PRES   REMARKS
BEAUFORT       PTCLDY    64  58  80 SW16      29.69S
CEDAR ISLAND     N/A     64 N/A N/A S10       29.71S
JACKSONVILLE   CLOUDY    69  57  65 SW9       29.68R
NEWPORT          N/A     64  59  82 S5G12       N/A
PINEY ISLAND   MOCLDY    67  57  70 S14       29.68S
WILMINGTON     MOCLDY    69  57  65 SW9       29.70R


$$

NCZ011>013-027>030-043-044-078>080-089-090>093-098-230200-
COASTAL PLAIN

CITY           SKY/WX    TMP DP  RH WIND       PRES   REMARKS
AHOSKIE        CLOUDY    66  55  67 CALM      29.66R
CLINTON        CLOUDY    73  56  55 W9        29.71R
ELIZABETHTOWN  DRIZZLE   66  60  81 NW5       29.71S
GOLDSBORO      CLOUDY    74  54  49 W7        29.67R
GREENVILLE     CLOUDY    73  54  49 NW3       29.70R
HAVELOCK       MOCLDY    68  54  60 SW12      29.69R
KENANSVILLE    CLOUDY    74  51  43 W5        29.69R
KINSTON        CLOUDY    73  52  46 W3        29.67R
NEW BERN       MOCLDY    70  54  56 SW8       29.68R
RICHLANDS      CLOUDY    72  70  94 SW7       29.70R
ROANOKE RAPIDS NOT AVBL
ROCKY MOUNT    CLOUDY    70  54  56 W3        29.67R
WASHINGTON     MOCLDY    73  54  51 NW5       29.67R
WHITEVILLE     CLOUDY    70  56  61 CALM      29.71S

$$

AMZ130-135-150-152-154-156-158-170-250-252-270-ANZ085-086-088-633-658-670-230200-
MARINE OBSERVATIONS

STATION/POSITION TIME  TEMP    WIND        PRES    WAVE   SWELL
                       AIR SEA DIR/SP/G            HT/PER HT/PER
                 (UTC) (F)     (DEG/KT/KT) (MB)    (FT/S) (FT/S)
CHESAPEAKE LIGHT 0100   71      10/ 13/ 14 1003.4
BUOY 44014       0100   54 49  210/ 12/ 14 1002.7    4/ 8   3/ 8
DUCK             0100   67 48  200/ 12/ 13 1002.3
2E DUCK          0100      52                N/A     3/ 9
OREGON INLET     0100   62 59  200/ 14/ 16 1003.8
BUOY 44095       0100      51                N/A     4/ 9   2/11
HATTERAS CG      0100   63 57  220/ 12/ 16 1004.9
DIAMOND BUOY     0100   73 76  240/ 21/ 27 1004.4    5/ 8   3/ 8
CAPE LOOKOUT     0100   64     220/ 10/ 12 1005.3
BEAUFORT LAB     0100   63 60  230/  6/ 11 1004.8
30 SE NEW RIVER  0100   69 69  230/ 19/ 23 1006.0    5/ 5   2/ 8
5 SE WRIGHTSVILL 0100   63 60  220/ 14/ 16 1005.7
FRYING PAN BUOY  0100   69 67  230/ 17/ 21 1006.3    4/ 5   2/ 8
BUOY 41001       NOT AVBL
BUOY 41002       NOT AVBL
BUOY 41004       0100   70 70  220/ 17/ 19 1007.8    4/ 4   2/ 9

$$



USA.gov is the U.S. government's official web portal to all federal, state and local government web resources and services.